Weather History for KDGW - October, 2013

Change the Weather History Date:

Thursday, October 3, 2013

  Actual Average Record
Temperature  
Mean Temperature 45 °F 50 °F  
Max Temperature 57 °F 66 °F 83 °F (2011)
Min Temperature 33 °F 34 °F 21 °F (1978)
Degree Days  
Heating Degree Days 20 15  
Month to date heating degree days 43 43  
Since 1 July heating degree days 181 312  
Cooling Degree Days 0 0  
Month to date cooling degree days 0 0  
Year to date cooling degree days 739 486  
Moisture  
Dew Point 37 °F    
Average Humidity 76    
Maximum Humidity 100    
Minimum Humidity 51    
Precipitation  
Precipitation T in 0.04 in 0.38 in (2013)
Month to date precipitation T 0.14  
Year to date precipitation 7.26 11.42  
Sea Level Pressure  
Sea Level Pressure 29.88 in    
Wind  
Wind Speed 12 mph (East)    
Max Wind Speed 23 mph    
Max Gust Speed 30 mph    
Visibility 8 miles    
Events Rain , Snow    
T = Trace of Precipitation, MM = Missing Value Source: NWS Daily Summary

Daily Weather History Graph

Daily Weather History Graph

Search for Another Location

Airport or City:

Trip Planner

Search our weather history database for the weather conditions in past years. The results will help you decide how hot, cold, wet, or windy it might be!

Date:

Astronomy

Oct. 03, 2013 Rise Set
Actual Time 7:01 AM MDT 6:38 PM MDT
Civil Twilight 6:33 AM MDT 7:06 PM MDT
Nautical Twilight 6:00 AM MDT 7:39 PM MDT
Astronomical Twilight 5:27 AM MDT 8:12 PM MDT
Moon 5:36 AM MDT (10/3) 5:49 PM MDT (10/3)
Length of Visible Light 12h 33m
Length of Day
11h 37m
Waning Crescent, 2% of the Moon is Illuminated
Oct 3
Waning Crescent
Oct 4
New
Oct 11
First Quarter
Oct 18
Full
Oct 26
Last Quarter

Hourly Weather History & Observations

Time (MDT) Temp. Windchill Dew Point Humidity Pressure Visibility Wind Dir Wind Speed Gust Speed Precip Events Conditions
12:53 AM 45.0 °F 38.9 °F 30.9 °F 58% 29.85 in 10.0 mi SE 12.7 mph - N/A   Clear
1:53 AM 44.1 °F 37.7 °F 30.9 °F 60% 29.86 in 10.0 mi SE 12.7 mph - N/A   Clear
2:53 AM 44.1 °F 37.7 °F 32.0 °F 63% 29.84 in 10.0 mi East 12.7 mph - N/A   Mostly Cloudy
3:53 AM 44.1 °F 40.8 °F 32.0 °F 63% 29.86 in 10.0 mi ENE 5.8 mph - N/A   Mostly Cloudy
4:53 AM 43.0 °F 37.7 °F 32.0 °F 65% 29.88 in 10.0 mi East 9.2 mph - N/A   Overcast
5:53 AM 44.1 °F 41.5 °F 33.1 °F 65% 29.87 in 10.0 mi ESE 4.6 mph - N/A   Overcast
6:53 AM 43.0 °F 40.3 °F 33.1 °F 68% 29.86 in 10.0 mi ESE 4.6 mph - N/A   Overcast
7:53 AM 44.1 °F 38.6 °F 34.0 °F 68% 29.87 in 10.0 mi East 10.4 mph - N/A   Overcast
8:53 AM 46.0 °F 39.6 °F 34.0 °F 63% 29.86 in 10.0 mi SE 15.0 mph 21.9 mph N/A   Overcast
9:53 AM 48.0 °F - 35.1 °F 61% 29.85 in 10.0 mi SE 11.5 mph - 0.00 in   Mostly Cloudy
10:53 AM 50.0 °F - 35.1 °F 57% 29.83 in 10.0 mi ESE 12.7 mph - N/A   Mostly Cloudy
11:53 AM 55.0 °F - 37.0 °F 51% 29.79 in 10.0 mi ESE 11.5 mph 19.6 mph N/A   Partly Cloudy
12:53 PM 55.9 °F - 37.9 °F 51% 29.78 in 10.0 mi SE 17.3 mph 21.9 mph N/A   Overcast
1:53 PM 53.1 °F - 37.9 °F 57% 29.81 in 10.0 mi East 13.8 mph - N/A   Overcast
2:43 PM 48.2 °F - 39.2 °F 71% 29.87 in 10.0 mi East 20.7 mph - N/A   Overcast
2:53 PM 48.9 °F - 39.0 °F 69% 29.82 in 10.0 mi East 16.1 mph 25.3 mph N/A   Overcast
3:14 PM 48.2 °F - 39.2 °F 71% 29.87 in 10.0 mi East 17.3 mph - N/A   Overcast
3:53 PM 46.0 °F 37.8 °F 41.0 °F 83% 29.84 in 10.0 mi East 23.0 mph 29.9 mph 0.00 in Rain Light Rain
4:04 PM 46.4 °F 39.0 °F 39.2 °F 76% 29.88 in 10.0 mi East 19.6 mph 26.5 mph 0.00 in   Overcast
4:26 PM 44.6 °F 36.6 °F 39.2 °F 81% 29.87 in 10.0 mi East 19.6 mph 25.3 mph 0.00 in   Overcast
4:53 PM 43.0 °F 35.7 °F 39.0 °F 86% 29.86 in 10.0 mi East 15.0 mph 26.5 mph 0.00 in   Overcast
5:53 PM 42.1 °F 33.6 °F 39.9 °F 92% 29.87 in 6.0 mi East 18.4 mph - N/A Rain Light Rain
6:00 PM 42.8 °F 34.3 °F 39.2 °F 87% 29.89 in 7.0 mi East 19.6 mph - N/A Rain Rain
6:14 PM 42.8 °F 34.8 °F 39.2 °F 87% 29.90 in 3.0 mi East 17.3 mph - N/A Rain Rain
6:29 PM 42.8 °F 34.0 °F 39.2 °F 87% 29.89 in 5.0 mi East 20.7 mph 27.6 mph N/A Rain Rain
6:38 PM 42.8 °F 34.8 °F 39.2 °F 87% 29.90 in 4.0 mi East 17.3 mph 24.2 mph N/A Rain Rain
6:53 PM 42.1 °F 34.9 °F 39.9 °F 92% 29.88 in 10.0 mi East 13.8 mph 24.2 mph N/A Rain Light Rain
7:16 PM 42.8 °F 36.2 °F 39.2 °F 87% 29.92 in 4.0 mi East 12.7 mph - N/A Rain Light Rain
7:39 PM 41.0 °F 33.9 °F 39.2 °F 93% 29.92 in 3.0 mi East 12.7 mph - N/A Rain Rain
7:53 PM 41.0 °F 34.3 °F 39.9 °F 96% 29.91 in 5.0 mi East 11.5 mph - N/A Rain Rain
8:11 PM 41.0 °F 34.7 °F 39.2 °F 93% 29.93 in 9.0 mi East 10.4 mph - N/A Rain Light Rain
8:53 PM 39.9 °F 33.9 °F 37.9 °F 93% 29.95 in 5.0 mi North 9.2 mph - N/A Rain Rain
9:14 PM 39.2 °F 32.5 °F 37.4 °F 93% 29.98 in 4.0 mi NNE 10.4 mph - N/A Rain Rain
9:41 PM 35.6 °F 27.1 °F 33.8 °F 93% 29.99 in 5.0 mi NNE 12.7 mph - N/A Rain Rain
10:53 PM 34.0 °F 25.0 °F 33.1 °F 96% 29.99 in 6.0 mi NNE 12.7 mph - N/A Snow Light Snow
11:23 PM 33.8 °F 24.8 °F 33.8 °F 100% 29.99 in 9.0 mi North 12.7 mph - N/A   Overcast
11:53 PM 34.0 °F 26.0 °F 33.1 °F 96% 29.96 in 10.0 mi North 10.4 mph - N/A   Overcast